GSAT0218 (GALILEO 22)

Last updated on Mon Sep 21 2026 00:02:49 GMT+0000 (Coordinated Universal Time)

1 43058U 17079D 26263.18715975 .00000016 00000+0 00000+0 0 9991 2 43058 55.0501 218.8893 0004856 286.4184 73.5008 1.70473974 54636
UTC large
Height (km)
Speed (km/s)
/
Latitude / Longitude
Inclination (degrees)
Orbital Period (minutes)
Azimuth
Elevation
Range (km)
Doppler Factor

Next 0 passes for location: London (51.5072 / 0.1276)

No passes found over London.
GSAT0218 (GALILEO 22)